Location: Waldport
(44.4270°N, 124.0680°W)
Time: 10:04:38
(UTC-08:00)

Daily predictions for brighter satellites

Satellite Brightness Start Highest point End
(mag) Time Altitude Azimuth Time Altitude Azimuth Time Altitude Azimuth
Geosat 4.3 18:31:43 10° NNE 18:36:45 73° WNW 18:41:45 10° SW
Okean 1-7 Rocket 3.7 18:34:04 10° N 18:38:32 57° E 18:42:55 10° SSE
Meteor 1-11 Rocket 3.8 18:33:10 10° S 18:38:59 77° E 18:44:58 10° NNE
Cosmos 1300 Rocket 3.8 18:43:18 10° SSW 18:47:43 75° W 18:52:11 10° N
Cosmos 1238 Rocket 3.6 18:50:07 10° NNW 18:52:56 42° W 18:55:55 10° SSW
Meteor 1-5 Rocket 4.4 18:48:24 10° S 18:54:10 54° E 18:59:51 10° NNE
Cosmos 1763 Rocket 4.4 18:51:36 10° N 18:56:02 28° ENE 19:00:19 11° ESE
Cosmos 405 Rocket 3.3 18:53:03 10° N 18:56:51 37° ENE 19:00:34 10° SE
Cosmos 1455 Rocket 4.2 18:54:35 10° SE 18:57:58 22° E 19:01:20 10° NE
Cosmos 2285 Rocket 4.0 18:56:03 10° NNW 19:02:32 80° ENE 19:08:56 10° SSE
COSMO-SKYMED 1 3.9 18:58:51 10° N 19:02:58 43° WNW 19:07:04 10° SW
H-2A R/B 3.2 19:00:40 10° SE 19:04:07 37° ENE 19:07:38 10° N
FengYun 1-2 T 4.2 18:59:42 10° SSE 19:05:06 63° ENE 19:10:35 10° N
Cosmos 2237 Rocket 2.5 19:00:10 10° NNW 19:05:41 48° ENE 19:11:10 10° SE
ALOS 2.2 19:03:33 10° SSE 19:08:11 70° ENE 19:12:51 10° N
Cosmos 2297 Rocket 3.0 19:04:11 10° SSE 19:08:49 27° ESE 19:13:27 10° NE
CZ-2D R/B 4.0 19:05:42 10° SE 19:09:07 32° ENE 19:12:33 10° N
Cosmos 1741 Rocket 4.5 19:04:21 10° SSW 19:09:31 65° WNW 19:14:44 10° NNE
SJ-6B 3.0 19:07:31 10° S 19:11:28 74° WSW 19:15:20 10° NNW
Cosmos 371 Rocket 4.4 19:08:26 10° N 19:12:29 25° ENE 19:14:30 20° E
Cosmos 2219 Rocket 2.2 19:09:08 10° NNW 19:14:47 89° ENE 19:20:24 10° SSE
COSMOS 2428 3.6 19:10:08 10° NW 19:15:39 52° WSW 19:21:09 10° S
Cosmos 1441 Rocket 3.9 19:19:22 10° N 19:23:02 34° ENE 19:24:33 25° ESE
Resurs 01 Rocket 1.5 19:21:09 10° SSE 19:25:33 78° ENE 19:29:58 10° N
FREGAT/IRIS 4.4 19:23:45 10° SSW 19:26:37 35° W 19:29:31 10° NNW
Cosmos 1025 Rocket 3.8 19:23:46 10° NNW 19:28:04 55° W 19:32:21 10° S
Cosmos 468 Rocket 4.0 19:23:29 10° NNW 19:28:46 87° WSW 19:34:03 10° SSE
Cosmos 2227 Rocket 2.3 19:24:02 10° S 19:29:28 51° ESE 19:34:58 10° NE
Cosmos 2219 4.0 19:25:08 10° SW 19:30:45 54° WNW 19:36:23 10° NNE
Resurs 1-3 3.5 19:26:26 10° SSE 19:30:48 74° ENE 19:35:12 10° N
OTV 4 2.1 19:31:50 10° SW 19:34:12 21° S 19:34:16 21° S
Cosmos 1892 Rocket 3.5 19:30:10 10° N 19:34:33 89° ENE 19:38:57 10° S
Abrixas rocket 2.8 19:33:47 10° W 19:37:05 51° NNW 19:38:06 35° NE
Spot 2 Rocket 3.5 19:32:05 10° SSE 19:37:09 87° WSW 19:42:17 10° NNW
Gbstr 26 Del rocket 3.9 19:37:54 10° W 19:41:21 33° NNW 19:43:03 22° NNE
SL-16 R/B 2.6 19:37:44 10° NNW 19:43:09 42° ENE 19:44:57 33° E
Cosmos 1610 Rocket 4.4 19:37:08 10° S 19:43:21 89° WNW 19:49:32 10° N
Okean 2 4.3 19:40:12 10° NNW 19:44:16 51° W 19:48:19 10° S
ERS-1 Rocket 4.1 19:45:00 24° NE 19:45:00 24° NE 19:48:35 10° N
USA 215 4.4 19:38:45 10° NE 19:44:35 36° NNW 19:50:25 10° W
GEOS 3 Rocket 3.9 19:42:37 27° ENE 19:45:06 44° ESE 19:50:07 10° SSW
Meteor 1-12 Rocket 4.3 19:40:14 10° S 19:46:06 63° E 19:51:55 10° NNE
USA 186 3.3 19:47:52 21° N 19:47:52 21° N 19:48:59 10° N
NOSS 3-1 (A) 4.0 19:41:02 10° NW 19:48:35 75° NE 19:54:05 24° SE
Cosmos 1814 Rocket 4.1 19:47:08 10° NNW 19:52:17 72° WSW 19:57:19 10° S
Cosmos 1939 Rocket 4.2 19:54:17 25° NNE 19:54:17 25° NNE 19:56:28 10° N
Envisat 3.2 19:52:51 41° ESE 19:53:48 46° ENE 19:58:40 10° N
ATLAS 2AS CENTAUR R/B 3.8 19:46:33 10° NNW 19:53:53 35° NE 19:56:44 28° ENE
Atlas Centaur 2 4.1 19:49:11 10° SSW 19:54:10 19° S 19:55:41 18° SSE
Aureole 2 Rocket 3.5 19:54:14 10° NNW 19:56:11 30° N 19:56:11 30° N
Cosmos 1544 Rocket 3.8 19:53:59 10° SSW 19:58:17 67° W 20:02:36 10° N
Helios 1B rocket 2.3 19:54:22 10° NNE 19:58:32 70° ESE 20:02:39 10° S
Cosmos 1437 3.9 19:58:08 10° NNW 20:01:17 43° W 20:03:05 21° SSW
NOSS 3-1 (C) 4.2 19:57:40 10° NW 20:05:14 75° WSW 20:11:31 19° SSE
Cosmos 1980 4.3 20:00:01 10° NNW 20:05:32 57° WSW 20:10:42 12° S
Cosmos 1295 Rocket 4.4 19:59:43 10° S 20:05:50 62° E 20:12:04 10° NNE
Helios 1A 3.2 20:06:13 29° S 20:08:13 69° WSW 20:12:23 10° NNW
Cosmos 1975 2.9 20:04:12 10° SSW 20:08:13 75° W 20:12:19 10° N
Cosmos 1500 3.2 20:04:58 10° SSW 20:08:44 75° W 20:12:32 10° N
Cosmos 2333 Rocket 3.3 20:03:50 10° NW 20:09:14 43° WSW 20:14:38 10° S
USA 32 3.9 20:04:04 10° N 20:09:19 85° E 20:12:20 26° S
ATLAS CENTAUR R/B 3.0 20:06:49 10° SW 20:08:30 24° SW 20:08:30 24° SW
SL-8 Rocket 4.1 20:06:42 27° SSE 20:09:56 52° E 20:16:03 10° NNE
Cosmos 1602 Rocket 3.4 20:07:53 10° N 20:12:17 77° ENE 20:12:17 77° ENE
Cosmos 1626 Rocket 3.4 20:11:52 10° N 20:16:21 89° ENE 20:16:28 86° SSE
Cosmos 1486 Rocket 4.5 20:21:17 10° SSW 20:26:33 61° WNW 20:31:49 10° NNE
Cosmos 841 Rocket 3.9 20:24:21 10° NNW 20:29:25 59° WSW 20:30:57 41° SSW
Cosmos 2082 4.2 20:27:54 10° SW 20:33:34 59° WNW 20:39:13 10° NNE
Cosmos 540 Rocket 3.8 20:30:54 10° NNW 20:34:57 54° N 20:34:57 54° N
H-2A R/B 4.2 20:50:02 16° NNE 20:50:02 16° NNE 20:51:18 10° N
Cosmos 2237 Rocket 4.0 20:44:44 10° NW 20:49:28 28° WSW 20:53:36 12° SSW
Cosmos 2297 Rocket 3.0 20:47:06 10° SW 20:52:33 48° WNW 20:58:03 10° NNE
Cosmos 371 Rocket 4.3 20:48:29 10° NW 20:53:03 41° WSW 20:53:13 41° WSW
Cosmos 1727 Rocket 4.2 20:49:43 10° N 20:54:51 60° NNE 20:54:51 60° NNE
Cosmos 2227 Rocket 4.0 21:08:59 10° WSW 21:13:48 28° NW 21:18:39 10° N
SL-16 R/B 3.7 21:22:09 10° NW 21:26:53 31° W 21:26:53 31° W
ATLAS 2AS CENTAUR R/B 3.3 21:37:38 10° NW 21:44:11 61° NW 21:44:11 61° NW
